This demonstration page uses our WeatherBlox Daily Observations layout. Learn more.

41.55636, -103.73856

Hourly Observations for March 6, 2019

Temp ( °F °C ) Dew Point ( °F °C ) Humidity (%) Winds ( mph kmh ) Pressure ( in mb ) Visibility ( mi km ) Precip ( " mm )
12:53 am 00:53 Cloudy 19 -7.2 12 -11.1 74 74 E 8 13 30.21 1023 10 16.09344 0 0
1:53 am 01:53 Clear 19 -7.2 13 -10.6 77 77 ESE 8 13 30.18 1022 10 16.09344 0 0
2:53 am 02:53 Mostly Cloudy 19 -7.2 13 -10.6 77 77 SE 6 9 30.15 1021 10 16.09344 0 0
3:53 am 03:53 Cloudy 19 -7.2 14 -10 81 81 SSE 6 9 30.12 1020 10 16.09344 0 0
4:53 am 04:53 Cloudy 19 -7.2 14 -10 81 81 SE 6 9 30.12 1020 10 16.09344 0 0
5:53 am 05:53 Cloudy 20 -6.7 15 -9.4 81 81 E 5 7 30.12 1020 10 16.09344 0 0
6:53 am 06:53 Cloudy 20 -6.7 16 -8.9 85 85 SSE 6 9 30.12 1020 10 16.09344 0 0
7:53 am 07:53 Cloudy 22 -5.6 17 -8.3 82 82 Calm 30.12 1020 10 16.09344 0 0
8:53 am 08:53 Cloudy 23 -5 19 -7.2 85 85 SSE 3 6 30.15 1021 10 16.09344 0 0
9:17 am 09:17 Cloudy with Light Snow 25 -3.9 21 -6.1 85 85 ESE 3 6 30.21 1023 7 11.265408 0.001 0.001
9:43 am 09:43 Cloudy 28 -2.2 23 -5 81 81 ENE 6 9 30.18 1022 10 16.09344 0.001 0.001
9:53 am 09:53 Cloudy 29 -1.7 23 -5 78 78 ENE 9 15 30.12 1020 10 16.09344 0.001 0.001
10:53 am 10:53 Cloudy 30 -1.1 23 -5 75 75 E 10 17 30.09 1019 10 16.09344 0 0
11:12 am 11:12 Cloudy 31 -0.6 24 -4.4 76 76 ENE 12 19 30.12 1020 10 16.09344 0 0
11:53 am 11:53 Mostly Cloudy 32 0 24 -4.4 73 73 E 12 19 30.09 1019 10 16.09344 0 0
12:53 pm 12:53 Cloudy 31 -0.6 24 -4.4 76 76 E 12 19 30.06 1018 10 16.09344 0 0
1:53 pm 13:53 Cloudy 30 -1.1 24 -4.4 79 79 ENE 12 19 30.03 1017 10 16.09344 0 0
2:53 pm 14:53 Cloudy 30 -1.1 24 -4.4 79 79 ENE 12 19 30.06 1018 10 16.09344 0 0
3:53 pm 15:53 Cloudy 28 -2.2 23 -5 81 81 ENE 16 26 30.06 1018 10 16.09344 0 0
4:53 pm 16:53 Cloudy 26 -3.3 21 -6.1 81 81 ENE 20 31 30.06 1018 10 16.09344 0 0
5:32 pm 17:32 Cloudy with Light Snow 25 -4 19 -7 80 80 ENE 18 30 30.15 1021 1.75 2.816352 0 0
5:39 pm 17:39 Cloudy with Light Snow 24 -4.4 20 -6.7 84 84 ENE 18 30 30.15 1021 1 1.609344 0.001 0.001
5:53 pm 17:53 Mostly Cloudy with Scattered Snow Showers 22 -5.6 20 -6.7 92 92 ENE 20 31 30.09 1019 1 1.609344 0.01 0.254
6:05 pm 18:05 Mostly Cloudy with Scattered Snow Showers 21 -6.1 20 -6.7 96 96 ENE 21 33 30.15 1021 0.75 1.207008 0.001 0.001
6:12 pm 18:12 Mostly Cloudy with Snow 21 -6 19 -7 93 93 ENE 18 30 30.15 1021 0.5 0.804672 0 0
6:53 pm 18:53 Mostly Cloudy with Snow 20 -6.7 18 -7.8 92 92 ENE 17 28 30.06 1018 0.5 0.804672 0.04 1.016
7:21 pm 19:21 Mostly Cloudy with Scattered Snow Showers 19 -7.2 18 -7.8 96 96 E 14 22 30.15 1021 1 1.609344 0.02 0.508
7:53 pm 19:53 Mostly Cloudy with Scattered Snow Showers 20 -6.7 18 -7.8 92 92 ESE 7 11 30.09 1019 1 1.609344 0.06 1.524
8:00 pm 20:00 Mostly Cloudy with Scattered Snow Showers 20 -6.7 18 -7.8 92 92 ESE 10 17 30.21 1023 0.75 1.207008 0.01 0.254
8:21 pm 20:21 Mostly Cloudy with Snow 20 -6.7 18 -7.8 92 92 E 9 15 30.21 1023 0.5 0.804672 0.05 1.27
8:31 pm 20:31 Mostly Cloudy with Snow 19 -7.2 18 -7.8 96 96 E 9 15 30.24 1024 0.25 0.402336 0.08 2.032
8:38 pm 20:38 Mostly Cloudy with Snow 19 -7 18 -8 93 93 E 10 17 30.24 1024 0.5 0.804672 0 0
8:53 pm 20:53 Mostly Cloudy with Snow 19 -7.2 18 -7.8 96 96 E 8 13 30.12 1020 0.5 0.804672 0.13 3.302
9:24 pm 21:24 Mostly Cloudy with Snow 19 -7 18 -8 93 93 ENE 8 13 30.24 1024 0.25 0.402336 0 0
9:37 pm 21:37 Mostly Cloudy with Snow 19 -7.2 18 -7.8 96 96 ENE 9 15 30.24 1024 0.5 0.804672 0.08 2.032
9:53 pm 21:53 Mostly Cloudy with Scattered Snow Showers 19 -7.2 17 -8.3 92 92 E 12 19 30.09 1019 0.75 1.207008 0.1 2.54
10:02 pm 22:02 Mostly Cloudy with Scattered Snow Showers 19 -7 18 -8 93 93 E 12 19 30.24 1024 0.75 1.207008 0 0
10:20 pm 22:20 Mostly Cloudy with Scattered Snow Showers 19 -7 18 -8 93 93 E 12 19 30.24 1024 1 1.609344 0 0
10:53 pm 22:53 Windy with Snow Likely 19 -7.2 17 -8.3 92 92 E 25 41 29.94 1014 1.25 2.01168 0.02 0.508
11:06 pm 23:06 Cloudy with Light Snow 19 -7 18 -8 93 93 E 16 26 30.15 1021 2 3.218688 0 0
11:24 pm 23:24 Cloudy with Mist and Fog 19 -7.2 17 -8.3 92 92 ESE 12 19 30.15 1021 3 4.828032 0.001 0.001
11:53 pm 23:53 Cloudy with Mist and Fog 19 -7.2 17 -8.3 92 92 ESE 13 20 30.03 1017 4 6.437376 0.01 0.254

Powered by AerisWeather